Location: Bjelajci
(45.0103°N, 16.1758°E)
Time: 19:54:53
(UTC+00:00)

IRS-P3 - Pass Details

Date: 14 July 2020
Orbit: 814 x 819 km, 98.8° (Epoch: 05 August)

Event Time Altitude Azimuth Distance (km) Brightness Sun altitude
Rises 01:49:52 0° 11° (NNE) 3,352 8.5 -13.1°
Reaches altitude 10° 01:52:14 10° 9° (N) 2,417 7.5 -12.8°
Maximum altitude 01:57:32 68° 288° (WNW) 882 4.2 -12.2°
Enters shadow 02:01:59 15° 208° (SSW) 2,085 5.6 -11.7°
